Terminal Aerodrome Forecast
Issued by NWS

Home | Current Version | Previous Version | Text Only | Print | Product List | Glossary On
Versions: 1 2 3 4 5 6 7 8 9 10 11 12 13 14 15 16 17 18 19 20 21 22 23 24 25 26 27 28 29 30 31 32 33 34 35 36 37 38 39 40 41 42 43 44 45 46 47 48 49 50
000
FTUS42 KRAH 200152 AAA
TAFINT
TAF AMD
KINT 200152Z 2002/2024 16008G16KT 6SM -RA BR OVC009
      TEMPO 2002/2003 1 1/2SM -RA BR
     FM200500 20012KT 6SM BR OVC005
     FM201400 24012G22KT P6SM BKN025
     FM201800 24015G25KT P6SM BKN040=

USA.gov is the U.S. government's official web portal to all federal, state and local government web resources and services.